Home > Weather > Bogota > Past weeks

Flag for Colombia Weather for the Past 2 Weeks in Bogota, Colombia

Now
54 °F

Passing clouds.


Feels Like: 52 °F
Forecast: 49 / 69 °F
Wind: 6 mph from Northeast

Location: Bogota / Eldorado

Current Time: Feb 13, 2016 at 4:28:48 AM

Latest Report: Feb 13, 2016 at 4:00 AM


Visibility: N/A

Pressure: 30.29 "Hg (22.13 "Hg at 2618m altitude)

Humidity: 94%

Dew point: 52 °F

Location of BogotaLocation

Historic Weather in Bogota — Graph

°F

Bogota Temperature Yesterday

Maximum temperature yesterday: 70 °F (at 1:00 PM)
Minimum temperature yesterday: 50 °F (at 6:00 AM)
Average temperature yesterday: 60 °F

High & Low Weather Summary for the Past Weeks

 TemperatureHumidityPressure
High75 °F (Feb 1, 1:00 PM)100% (Jan 29, 3:00 AM)30.41 "Hg (Jan 29, 3:00 AM)
Low39 °F (Feb 1, 6:00 AM)14% (Feb 1, 12:00 PM)30.05 "Hg (Feb 11, 2:00 AM)
Average59 °F69%30.33 "Hg
* Reported Jan 29 3:00 AM — Feb 13 3:00 AM, Bogota, Weather by CustomWeather, © 2016

Note: Actual official high and low records may vary slightly from our data, if they occured in-between our weather recording intervals... More about our weather records

Advertising

Bogota Weather History for the Previous 24 Hours

 ConditionsComfort  
Time TempWeatherWind HumidityBarometerVisibility
3:00 AM
Sat, Feb 13
52 °FPassing clouds.5 mph88%30.29 "HgN/A
2:00 AM54 °FPassing clouds.7 mph82%30.30 "HgN/A
1:00 AM54 °FPassing clouds.5 mph82%30.32 "HgN/A
12:00 AM54 °FPassing clouds.2 mph82%30.34 "HgN/A
11:00 PM
Fri, Feb 12
54 °FPassing clouds.6 mph77%30.34 "HgN/A
10:00 PM57 °FPassing clouds.2 mph72%30.35 "HgN/A
9:00 PM61 °FPassing clouds.9 mph59%30.34 "HgN/A
8:00 PM59 °FPassing clouds.5 mph72%30.32 "HgN/A
7:00 PM63 °FPassing clouds.5 mph59%30.29 "HgN/A
6:00 PM64 °FScattered clouds.10 mph52%30.26 "HgN/A
5:00 PM66 °FBroken clouds.12 mph49%30.25 "HgN/A
4:00 PM66 °FScattered clouds.14 mph56%30.25 "HgN/A
3:00 PM68 °FScattered clouds.14 mph43%30.27 "HgN/A
2:00 PM70 °FScattered clouds.6 mph40%30.29 "HgN/A
1:00 PM70 °FBroken clouds.9 mph40%30.32 "HgN/A
12:00 PM68 °FBroken clouds.5 mph40%30.35 "HgN/A
11:00 AM66 °FPartly sunny.5 mph40%30.37 "HgN/A
10:00 AM64 °FPartly sunny.9 mph49%30.41 "HgN/A
9:00 AM61 °FPartly sunny.7 mph59%30.41 "HgN/A
8:00 AM57 °FPartly sunny.8 mph67%30.39 "HgN/A
7:00 AM54 °FPartly sunny.6 mph77%30.37 "HgN/A
6:00 AM50 °FPassing clouds.2 mph76%30.35 "HgN/A
5:00 AM52 °FSmoke.N/A77%30.33 "HgN/A
4:00 AM55 °FPartly cloudy.7 mph67%30.31 "HgN/A
Weather by CustomWeather, © 2016

See weather overviewHow to use our weather pages